Regional Weather Roundup
Issued by NWS Newport/Morehead, NC

Current Version | Previous Version | Text Only | Print | Product List | Glossary On
Versions: 1 2 3 4 5 6 7 8 9 10 11 12 13 14 15 16 17 18 19 20 21 22 23 24 25 26 27 28 29 30 31 32 33 34 35 36 37 38 39 40 41 42 43 44 45 46 47 48 49 50
000 ASUS42 KMHX 222122 RWRMHX WEATHER ROUNDUP FOR EASTERN NORTH CAROLINA NATIONAL WEATHER SERVICE NEWPORT/MOREHEAD CITY NC 500 PM EDT WED OCT 22 2014 NOTE: "FAIR" INDICATES FEW OR NO CLOUDS BELOW 12,000 FEET WITH NO SIGNIFICANT WEATHER AND/OR OBSTRUCTIONS TO VISIBILITY NCZ015>017-031-032-045>047-102-103-222200- NORTH COAST CITY SKY/WX TMP DP RH WIND PRES REMARKS EDENTON CLOUDY 58 51 76 NW15G23 29.88S ELIZABETH CITY CLOUDY 58 50 75 NW17G26 29.85R KITTY HAWK CLOUDY 58 52 79 NW16G24 29.81S MANTEO CLOUDY 57 51 81 NW18G25 29.84R $$ NCZ045>047-081-094-103-104-222200- CENTRAL COAST CITY SKY/WX TMP DP RH WIND PRES REMARKS FRISCO CLOUDY 58 51 78 NW17G29 29.85S SWANQUARTER N/A 57 N/A N/A NW9G18 29.85S $$ NCZ095-097-098-100-101-222200- SOUTHERN COAST CITY SKY/WX TMP DP RH WIND PRES REMARKS BEAUFORT PTSUNNY 62 47 57 NW28G35 29.91R CEDAR ISLAND N/A 61 N/A N/A NW28 29.91S JACKSONVILLE CLOUDY 65 46 50 NW12 29.93S PINEY ISLAND CLOUDY 64 48 56 W15G24 29.89R WILMINGTON MOSUNNY 66 45 46 NW10 29.94S $$ NCZ011>013-027>030-043-044-078>080-089-090>093-098-222200- COASTAL PLAIN CITY SKY/WX TMP DP RH WIND PRES REMARKS AHOSKIE CLOUDY 58 48 69 NW9 29.91F CLINTON MOSUNNY 66 46 49 NW7 29.96S ELIZABETHTOWN MOSUNNY 66 44 45 NW6 29.96S GOLDSBORO CLOUDY 65 48 52 NW9 29.92S GREENVILLE PTSUNNY 61 46 59 NW3 29.94S HAVELOCK PTSUNNY 63 46 54 NW15G25 29.93R KENANSVILLE PTSUNNY 64 44 47 NW8 29.95S KINSTON PTSUNNY 63 48 59 NW6 29.94F NEW BERN PTSUNNY 63 47 55 NW14G20 29.93S RICHLANDS CLOUDY 63 45 51 CALM 29.94S ROCKY MOUNT CLOUDY 63 45 51 NW12G18 29.93S WASHINGTON CLOUDY 60 48 65 NW7G16 29.91F WHITEVILLE PTSUNNY 66 44 45 W3 29.96S $$ AMZ130-135-150-152-154-156-158-170-250-252-270-ANZ085-086-088-633-658-670-222200- MARINE OBSERVATIONS STATION/POSITION TIME TEMP WIND PRES WAVE SWELL AIR SEA DIR/SP/G HT/PER HT/PER (UTC) (F) (DEG/KT/KT) (MB) (FT/S) (FT/S) CHESAPEAKE LIGHT 2100 58 320/ 35/ 38 1008.8 64 E VA BEACH 2100 59 69 330/ 21/ 25 1005.9 6/ 6 2/10 DUCK 2100 58 69 310/ 23/ 29 1008.7 2 E DUCK 2100 N/A 3/ 4 10 NE DUCK 2100 70 N/A 6/ 5 OREGON INLET 2100 58 66 290/ 20/ 27 1009.5 13E OREGON INLT 2100 74 N/A 5/ 6 HATTERAS CG 2100 60 68 310/ 26/ 30 1011.2 DIAMOND BUOY 2100 62 300/ 27/ 31 1010.0 6/ 6 2/10 17 S OCRACOKE NOT AVBL CAPE LOOKOUT 2100 62 310/ 21/ 27 1012.4 BEAUFORT LAB 2100 62 69 320/ 11/ 21 1012.2 30 SE NEW RIVER 2100 65 76 320/ 21/ 27 1012.4 4/ 5 2/10 5 SE WRIGHTSVLE 2100 63 73 330/ 16/ 17 N/A 225 S CAPE HAT 2017 72 79 310/ 19/ 25 1011.8 6/ 6 2/10 41 SE CHARLESTON 2100 66 79 320/ 12/ 16 1014.9 3/ 6 2/ 6 $$

USA.gov is the U.S. government's official web portal to all federal, state and local government web resources and services.